Location: Rometta
(44.2000°N, 10.0500°E)
Time: 22:52:16
(UTC+00:00)

CZ-2C R/B - Pass Details

Date: 20 January 2021
Orbit: 785 x 870 km, 98.2° (Epoch: 04 March)

Event Time Altitude Azimuth Distance (km) Brightness Sun altitude
Exits shadow 19:27:23 45° 291° (WNW) 1,163 3.6 -34.4°
Maximum altitude 19:27:24 45° 291° (WNW) 1,163 3.6 -34.4°
Drops below altitude 10° 19:32:40 10° 220° (SW) 2,506 5.5 -35.4°
Sets 19:35:09 0° 214° (SW) 3,443 6.2 -35.8°
